Time,TemperatureF,DewpointF,PressureIn,WindDirection,WindDirectionDegrees,WindSpeedMPH,WindSpeedGustMPH,Humidity,HourlyPrecipIn,Conditions,Clouds,dailyrainin,SoftwareType,DateUTC
2013-01-09 00:14:00,31.6,29.0,30.34,WSW,242,0.0,0.0,88,0.00,,,0.00,weatherlink.com 1.10,2013-01-09 05:14:00,
2013-01-09 00:29:00,31.1,28.0,30.34,WSW,242,0.0,0.0,88,0.00,,,0.00,weatherlink.com 1.10,2013-01-09 05:29:00,
2013-01-09 00:44:00,30.6,28.0,30.34,WSW,242,0.0,1.0,89,0.00,,,0.00,weatherlink.com 1.10,2013-01-09 05:44:00,
2013-01-09 00:59:00,30.2,27.0,30.34,WSW,242,0.0,0.0,89,0.00,,,0.00,weatherlink.com 1.10,2013-01-09 05:59:00,
2013-01-09 01:14:00,30.0,28.0,30.33,WSW,242,0.0,0.0,90,0.00,,,0.00,weatherlink.com 1.10,2013-01-09 06:14:00,
2013-01-09 01:29:00,29.9,28.0,30.33,WSW,242,0.0,0.0,91,0.00,,,0.00,weatherlink.com 1.10,2013-01-09 06:29:00,
2013-01-09 01:44:00,29.8,28.0,30.33,WSW,242,0.0,0.0,91,0.00,,,0.00,weatherlink.com 1.10,2013-01-09 06:44:00,
2013-01-09 01:59:00,29.7,27.0,30.33,WSW,242,0.0,0.0,91,0.00,,,0.00,weatherlink.com 1.10,2013-01-09 06:59:00,
2013-01-09 02:14:00,29.8,28.0,30.33,WSW,242,0.0,0.0,91,0.00,,,0.00,weatherlink.com 1.10,2013-01-09 07:14:00,
2013-01-09 02:29:00,29.9,28.0,30.33,WSW,242,0.0,0.0,92,0.00,,,0.00,weatherlink.com 1.10,2013-01-09 07:29:00,
2013-01-09 02:44:00,30.0,28.0,30.32,WSW,242,0.0,0.0,92,0.00,,,0.00,weatherlink.com 1.10,2013-01-09 07:44:00,
2013-01-09 02:59:00,29.9,28.0,30.32,WSW,242,0.0,0.0,92,0.00,,,0.00,weatherlink.com 1.10,2013-01-09 07:59:00,
2013-01-09 03:14:00,29.9,28.0,30.32,WSW,242,0.0,0.0,91,0.00,,,0.00,weatherlink.com 1.10,2013-01-09 08:14:00,
2013-01-09 03:29:00,30.1,28.0,30.31,WSW,242,0.0,0.0,91,0.00,,,0.00,weatherlink.com 1.10,2013-01-09 08:29:00,
2013-01-09 03:44:00,30.4,28.0,30.31,WSW,242,0.0,0.0,91,0.00,,,0.00,weatherlink.com 1.10,2013-01-09 08:44:00,
2013-01-09 03:59:00,30.5,28.0,30.31,WSW,242,0.0,0.0,90,0.00,,,0.00,weatherlink.com 1.10,2013-01-09 08:59:00,
2013-01-09 04:14:00,30.3,28.0,30.31,WSW,242,0.0,0.0,90,0.00,,,0.00,weatherlink.com 1.10,2013-01-09 09:14:00,
2013-01-09 04:29:00,30.2,28.0,30.31,WSW,242,0.0,0.0,91,0.00,,,0.00,weatherlink.com 1.10,2013-01-09 09:29:00,
2013-01-09 04:44:00,29.9,28.0,30.31,WSW,242,0.0,0.0,91,0.00,,,0.00,weatherlink.com 1.10,2013-01-09 09:44:00,
2013-01-09 04:59:00,29.7,27.0,30.31,WSW,242,0.0,0.0,91,0.00,,,0.00,weatherlink.com 1.10,2013-01-09 09:59:00,
2013-01-09 05:14:00,29.3,27.0,30.31,WSW,242,0.0,0.0,91,0.00,,,0.00,weatherlink.com 1.10,2013-01-09 10:14:00,
2013-01-09 05:29:00,28.8,27.0,30.30,WSW,242,0.0,0.0,91,0.00,,,0.00,weatherlink.com 1.10,2013-01-09 10:29:00,
2013-01-09 05:44:00,28.6,27.0,30.30,WSW,242,0.0,0.0,92,0.00,,,0.00,weatherlink.com 1.10,2013-01-09 10:44:00,
2013-01-09 05:59:00,28.3,26.0,30.30,WSW,242,0.0,0.0,92,0.00,,,0.00,weatherlink.com 1.10,2013-01-09 10:59:00,
2013-01-09 06:14:00,28.3,27.0,30.31,WSW,242,0.0,0.0,93,0.00,,,0.00,weatherlink.com 1.10,2013-01-09 11:14:00,
2013-01-09 06:29:00,28.9,27.0,30.31,WSW,242,0.0,1.0,94,0.00,,,0.00,weatherlink.com 1.10,2013-01-09 11:29:00,
2013-01-09 06:44:00,29.3,28.0,30.31,WSW,242,0.0,2.0,94,0.00,,,0.00,weatherlink.com 1.10,2013-01-09 11:44:00,
2013-01-09 06:59:00,29.7,28.0,30.32,WSW,242,0.0,0.0,93,0.00,,,0.00,weatherlink.com 1.10,2013-01-09 11:59:00,
2013-01-09 07:14:00,29.8,28.0,30.33,WSW,242,0.0,0.0,93,0.00,,,0.00,weatherlink.com 1.10,2013-01-09 12:14:00,
2013-01-09 07:29:00,29.6,28.0,30.33,WSW,242,0.0,0.0,92,0.00,,,0.00,weatherlink.com 1.10,2013-01-09 12:29:00,
2013-01-09 07:44:00,29.4,28.0,30.33,WSW,242,0.0,0.0,93,0.00,,,0.00,weatherlink.com 1.10,2013-01-09 12:44:00,
2013-01-09 07:59:00,29.5,28.0,30.33,WSW,242,0.0,1.0,93,0.00,,,0.00,weatherlink.com 1.10,2013-01-09 12:59:00,
2013-01-09 08:14:00,29.8,28.0,30.33,WSW,242,0.0,0.0,93,0.00,,,0.00,weatherlink.com 1.10,2013-01-09 13:14:00,
2013-01-09 08:29:00,30.4,29.0,30.33,WSW,242,0.0,0.0,94,0.00,,,0.00,weatherlink.com 1.10,2013-01-09 13:29:00,
2013-01-09 08:44:00,31.5,30.0,30.33,WSW,242,0.0,0.0,94,0.00,,,0.00,weatherlink.com 1.10,2013-01-09 13:44:00,
2013-01-09 08:59:00,33.6,32.0,30.33,WSW,242,0.0,2.0,92,0.00,,,0.00,weatherlink.com 1.10,2013-01-09 13:59:00,
2013-01-09 09:14:00,35.9,32.0,30.33,WSW,250,0.0,2.0,86,0.00,,,0.00,weatherlink.com 1.10,2013-01-09 14:14:00,
2013-01-09 09:30:00,37.3,33.0,30.33,WSW,250,1.0,1.0,83,0.00,,,0.00,weatherlink.com 1.10,2013-01-09 14:30:00,
2013-01-09 09:45:00,38.0,33.0,30.32,WSW,250,0.0,0.0,81,0.00,,,0.00,weatherlink.com 1.10,2013-01-09 14:45:00,
2013-01-09 10:00:00,39.4,33.0,30.30,WSW,250,0.0,1.0,79,0.00,,,0.00,weatherlink.com 1.10,2013-01-09 15:00:00,
2013-01-09 10:15:00,40.6,34.0,30.30,SW,220,1.0,2.0,78,0.00,,,0.00,weatherlink.com 1.10,2013-01-09 15:15:00,
2013-01-09 10:30:00,42.5,35.0,30.28,SW,221,0.0,2.0,75,0.00,,,0.00,weatherlink.com 1.10,2013-01-09 15:30:00,
2013-01-09 10:45:00,44.0,36.0,30.26,SSE,163,1.0,3.0,73,0.00,,,0.00,weatherlink.com 1.10,2013-01-09 15:45:00,
2013-01-09 11:00:00,44.8,36.0,30.26,SSW,196,0.0,3.0,71,0.00,,,0.00,weatherlink.com 1.10,2013-01-09 16:00:00,
2013-01-09 11:15:00,45.5,36.0,30.27,SW,224,1.0,4.0,70,0.00,,,0.00,weatherlink.com 1.10,2013-01-09 16:15:00,
2013-01-09 11:30:00,45.6,36.0,30.26,West,279,2.0,4.0,69,0.00,,,0.00,weatherlink.com 1.10,2013-01-09 16:30:00,
2013-01-09 11:45:00,45.5,36.0,30.25,West,280,2.0,4.0,70,0.00,,,0.00,weatherlink.com 1.10,2013-01-09 16:45:00,
2013-01-09 12:00:00,45.0,36.0,30.23,WNW,295,0.0,3.0,70,0.00,,,0.00,weatherlink.com 1.10,2013-01-09 17:00:00,
2013-01-09 12:15:00,44.9,36.0,30.21,SW,219,1.0,2.0,71,0.00,,,0.00,weatherlink.com 1.10,2013-01-09 17:15:00,
2013-01-09 12:30:00,45.0,36.0,30.21,WSW,251,0.0,2.0,71,0.00,,,0.00,weatherlink.com 1.10,2013-01-09 17:30:00,
2013-01-09 12:45:00,45.1,37.0,30.20,West,267,1.0,5.0,72,0.00,,,0.00,weatherlink.com 1.10,2013-01-09 17:45:00,
2013-01-09 13:00:00,45.5,37.0,30.19,SW,227,3.0,4.0,71,0.00,,,0.00,weatherlink.com 1.10,2013-01-09 18:00:00,
2013-01-09 13:15:00,45.8,37.0,30.21,West,271,3.0,4.0,71,0.00,,,0.00,weatherlink.com 1.10,2013-01-09 18:15:00,
2013-01-09 13:30:00,45.6,37.0,30.20,West,273,2.0,4.0,71,0.00,,,0.00,weatherlink.com 1.10,2013-01-09 18:30:00,
2013-01-09 13:45:00,45.4,36.0,30.20,West,272,0.0,4.0,71,0.00,,,0.00,weatherlink.com 1.10,2013-01-09 18:45:00,
2013-01-09 14:00:00,45.3,37.0,30.21,WNW,296,0.0,4.0,72,0.00,,,0.00,weatherlink.com 1.10,2013-01-09 19:00:00,
2013-01-09 14:15:00,45.2,37.0,30.18,South,186,0.0,4.0,72,0.00,,,0.00,weatherlink.com 1.10,2013-01-09 19:15:00,
2013-01-09 14:30:00,45.6,37.0,30.14,SSW,209,0.0,5.0,73,0.00,,,0.00,weatherlink.com 1.10,2013-01-09 19:30:00,
2013-01-09 14:45:00,45.8,38.0,30.11,SSE,148,0.0,4.0,73,0.00,,,0.00,weatherlink.com 1.10,2013-01-09 19:45:00,
2013-01-09 15:00:00,46.5,38.0,30.10,WSW,251,0.0,5.0,72,0.00,,,0.00,weatherlink.com 1.10,2013-01-09 20:00:00,
2013-01-09 15:15:00,47.1,38.0,30.10,SW,233,1.0,4.0,72,0.00,,,0.00,weatherlink.com 1.10,2013-01-09 20:15:00,
2013-01-09 15:30:00,47.4,39.0,30.11,West,272,1.0,3.0,72,0.00,,,0.00,weatherlink.com 1.10,2013-01-09 20:30:00,
2013-01-09 15:45:00,47.8,39.0,30.10,SW,221,3.0,4.0,72,0.00,,,0.00,weatherlink.com 1.10,2013-01-09 20:45:00,
2013-01-09 16:00:00,48.3,40.0,30.10,WSW,248,1.0,5.0,72,0.00,,,0.00,weatherlink.com 1.10,2013-01-09 21:00:00,
2013-01-09 16:16:00,48.6,40.0,30.09,SW,225,3.0,7.0,71,0.00,,,0.00,weatherlink.com 1.10,2013-01-09 21:16:00,
2013-01-09 16:31:00,48.6,40.0,30.09,SSW,202,1.0,6.0,71,0.00,,,0.00,weatherlink.com 1.10,2013-01-09 21:31:00,
2013-01-09 16:46:00,48.5,40.0,30.10,SW,229,4.0,7.0,72,0.00,,,0.00,weatherlink.com 1.10,2013-01-09 21:46:00,
2013-01-09 17:01:00,48.6,40.0,30.11,WSW,239,4.0,6.0,71,0.00,,,0.00,weatherlink.com 1.10,2013-01-09 22:01:00,
2013-01-09 17:16:00,48.6,40.0,30.12,West,271,4.0,6.0,71,0.00,,,0.00,weatherlink.com 1.10,2013-01-09 22:16:00,
2013-01-09 17:31:00,48.7,40.0,30.12,West,268,4.0,10.0,72,0.00,,,0.00,weatherlink.com 1.10,2013-01-09 22:31:00,
2013-01-09 18:01:00,48.1,39.0,30.13,SW,225,3.0,7.0,72,0.00,,,0.00,weatherlink.com 1.10,2013-01-09 23:01:00,
2013-01-09 18:16:00,47.6,39.0,30.13,WSW,252,3.0,7.0,73,0.00,,,0.00,weatherlink.com 1.10,2013-01-09 23:16:00,
2013-01-09 18:31:00,47.3,39.0,30.13,SW,224,1.0,7.0,73,0.00,,,0.00,weatherlink.com 1.10,2013-01-09 23:31:00,
2013-01-09 18:46:00,47.1,39.0,30.13,WNW,287,3.0,7.0,73,0.00,,,0.00,weatherlink.com 1.10,2013-01-09 23:46:00,
2013-01-09 19:01:00,46.8,39.0,30.14,West,259,2.0,7.0,74,0.00,,,0.00,weatherlink.com 1.10,2013-01-10 00:01:00,
2013-01-09 19:16:00,46.4,39.0,30.15,SW,215,1.0,9.0,74,0.00,,,0.00,weatherlink.com 1.10,2013-01-10 00:16:00,
2013-01-09 19:31:00,45.7,38.0,30.15,WSW,239,1.0,4.0,75,0.00,,,0.00,weatherlink.com 1.10,2013-01-10 00:31:00,
2013-01-09 19:46:00,45.2,38.0,30.16,West,269,0.0,7.0,76,0.00,,,0.00,weatherlink.com 1.10,2013-01-10 00:46:00,
2013-01-09 20:01:00,44.9,38.0,30.16,WSW,240,2.0,10.0,77,0.00,,,0.00,weatherlink.com 1.10,2013-01-10 01:01:00,
2013-01-09 20:16:00,44.4,38.0,30.16,West,273,1.0,6.0,78,0.00,,,0.00,weatherlink.com 1.10,2013-01-10 01:16:00,
2013-01-09 20:31:00,44.1,38.0,30.16,West,261,0.0,6.0,79,0.00,,,0.00,weatherlink.com 1.10,2013-01-10 01:31:00,
2013-01-09 20:46:00,43.8,38.0,30.16,SSW,211,2.0,7.0,80,0.00,,,0.00,weatherlink.com 1.10,2013-01-10 01:46:00,
2013-01-09 21:01:00,43.6,38.0,30.16,WSW,240,0.0,7.0,80,0.00,,,0.00,weatherlink.com 1.10,2013-01-10 02:01:00,
2013-01-09 21:16:00,43.6,38.0,30.15,SW,224,3.0,4.0,81,0.00,,,0.00,weatherlink.com 1.10,2013-01-10 02:16:00,
2013-01-09 21:31:00,43.8,38.0,30.15,West,259,1.0,7.0,80,0.00,,,0.00,weatherlink.com 1.10,2013-01-10 02:31:00,
2013-01-09 21:46:00,43.8,38.0,30.16,NW,304,2.0,7.0,80,0.00,,,0.00,weatherlink.com 1.10,2013-01-10 02:46:00,
2013-01-09 22:01:00,44.0,38.0,30.16,West,263,1.0,11.0,79,0.00,,,0.00,weatherlink.com 1.10,2013-01-10 03:01:00,
2013-01-09 22:16:00,44.3,38.0,30.16,NW,311,5.0,8.0,77,0.00,,,0.00,weatherlink.com 1.10,2013-01-10 03:16:00,
2013-01-09 22:31:00,44.6,37.0,30.16,West,269,4.0,10.0,75,0.00,,,0.00,weatherlink.com 1.10,2013-01-10 03:31:00,
2013-01-09 22:46:00,44.9,36.0,30.16,West,270,2.0,7.0,72,0.00,,,0.00,weatherlink.com 1.10,2013-01-10 03:46:00,
2013-01-09 23:01:00,44.8,36.0,30.17,NW,324,0.0,7.0,72,0.00,,,0.00,weatherlink.com 1.10,2013-01-10 04:01:00,
2013-01-09 23:16:00,44.4,36.0,30.18,WNW,284,1.0,7.0,73,0.00,,,0.00,weatherlink.com 1.10,2013-01-10 04:16:00,
2013-01-09 23:46:00,43.6,35.0,30.19,WSW,254,2.0,5.0,73,0.00,,,0.00,weatherlink.com 1.10,2013-01-10 04:46:00,